Lid_Strength_Index
6 5 5 4 3 3 3 3 3 4 4 5 5 4 4 3 3 3 4 3 3 3 3 3 3 3 3 4 5 5 5 6 5 5 3 2 2 3 2 2 3 3 2
8 7 6 5 3 3 3 3 4 4 4 4 3 3 3 3 3 3 4 4 4 4 4 3 3 3 3 4 5 5 6 6 6 7 6 5 4 3 3 3 4 4 3
9 8 7 5 3 3 3 4 4 4 4 4 4 4 4 4 4 4 4 4 5 4 4 4 4 4 4 4 5 5 6 7 6 6 7 8 8 7 3 3 4 5 5
8 8 8 6 4 4 3 4 4 5 4 4 4 4 4 5 4 4 4 5 5 4 4 4 4 4 4 5 5 5 6 6 7 6 6 5 6 8 8 4 4 5 6
9 9 8 6 5 4 4 4 4 4 4 4 4 4 4 4 4 5 5 5 5 5 4 4 4 4 4 5 5 6 6 6 7 7 6 6 6 6 7 8 7 6 6
9 9 8 6 6 5 4 4 4 4 4 4 4 4 4 5 5 5 6 6 5 5 4 5 4 4 4 5 5 6 6 6 7 6 6 7 7 7 8 8 7 8 6
9 9 9 7 6 5 5 5 5 5 4 4 4 4 4 4 5 5 6 6 6 5 5 5 5 4 4 5 5 6 6 6 6 6 7 6 7 6 7 7 7 8 6
9 9 8 8 6 5 5 5 5 4 4 4 4 4 4 5 5 6 6 6 6 6 5 5 5 5 5 5 5 6 6 6 6 7 7 7 7 6 7 7 8 8 8
9 8 8 7 6 5 5 4 5 5 4 4 4 4 4 5 5 6 6 6 6 6 6 6 6 6 6 6 5 6 6 6 6 7 7 7 7 7 7 7 7 8 9
9 8 8 7 7 6 6 5 5 5 4 4 4 5 5 5 6 6 6 6 6 7 7 7 7 7 7 6 6 6 6 7 7 7 7 7 7 7 7 7 7 7 8
9 8 7 7 7 6 6 6 6 6 5 5 5 5 5 6 6 6 6 6 7 7 7 7 8 8 8 8 7 7 7 8 8 7 8 8 8 8 8 7 7 8 8
9 8 8 8 7 7 7 7 6 7 6 6 5 6 5 6 6 7 7 7 7 7 8 8 8 8 8 8 8 8 8 8 8 8 8 8 8 8 8 8 8 8 8
9 9 9 9 9 8 8 7 7 7 7 7 7 7 6 7 7 7 7 7 8 8 8 8 9 9 9 9 8 8 8 8 8 8 8 8 8 9 8 8 9 8 9
10 10 10 10 10 9 9 9 8 8 7 7 7 7 7 7 7 7 7 8 8 8 8 8 8 9 9 9 9 9 9 8 8 8 8 8 8 8 8 8 8 9 9
12 12 11 11 11 11 10 10 10 10 9 9 9 9 8 8 8 8 8 8 8 8 8 8 8 8 8 9 8 8 8 9 9 8 8 8 8 8 7 9 9 9 9
13 12 12 12 12 12 11 11 11 10 10 10 10 9 9 8 8 8 8 8 8 7 8 8 8 8 8 8 8 8 8 8 9 9 8 8 8 8 8 8 8 8 9
14 14 13 13 13 12 12 12 11 10 11 10 10 10 10 10 9 9 9 9 8 8 7 7 7 8 7 7 8 7 8 8 7 8 8 8 8 8 8 7 7 7 7
14 14 13 13 13 13 12 12 12 12 12 12 11 11 11 10 10 10 9 9 8 8 9 9 8 8 8 7 7 7 7 8 8 8 7 8 7 7 7 8 8 8 8
13 14 13 13 13 13 12 13 13 12 12 12 12 11 11 11 10 10 9 9 9 9 9 8 8 8 8 7 7 7 8 8 8 8 8 8 8 7 7 8 8 8 8
13 14 13 13 13 13 12 13 13 13 13 12 12 11 10 10 11 10 10 9 9 9 9 8 8 7 8 7 7 6 7 7 8 7 7 6 7 6 6 7 8 8 8
13 13 13 13 13 12 12 13 12 12 12 11 11 10 10 10 10 10 10 10 9 9 9 9 8 8 7 6 6 6 6 7 7 7 7 6 6 6 6 5 5 6 5
13 12 12 12 11 11 11 11 11 10 10 10 10 10 10 10 10 10 9 9 9 9 9 9 8 7 7 5 5 5 5 5 5 6 5 4 4 4 4 4 4 3 2
12 11 11 11 11 11 11 11 10 10 10 10 10 10 9 9 9 9 9 9 8 8 8 8 8 7 6 5 4 4 4 4 4 5 3 3 3 4 3 3 3 3 3
12 11 12 12 11 11 10 10 10 10 10 11 10 10 9 9 8 7 7 7 7 7 7 7 7 7 6 5 4 4 4 4 4 4 4 4 3 3 3 3 3 3 4
11 11 11 12 11 11 10 9 9 9 10 10 9 9 8 8 7 7 7 7 6 6 6 6 5 5 5 4 3 3 3 3 2 2 2 3 3 4 3 3 3 3 3
11 11 11 11 11 10 9 9 8 8 9 9 8 7 7 7 7 7 7 5 5 4 4 3 3 2 2 2 2 2 2 2 2 3 4 4 4 4 3 4 4 3 3